DECAYED
Showing default

TROPICS-03, 56753 (Decayed)

Orbit data source: Space-Track

TROPICS-03, 56753 was a payload satellite owned by MIT-LL (US) in LEO that was launched on Fri, 26 May 2023 UTC via an ELECTRON launch vehicle from the Rocket Lab Launch Complex (RLLC). Payload-class satellites include a variety of spacecraft equipped with specific instruments for various scientific and technological missions. These include communications satellites like Starlink; space stations such as the ISS; scientific satellites like the Hubble; Earth observation satellites from companies like Planet Labs, Umbra, and HawkEye 360; GPS; miniature CubeSats for education and research; and military/defense satellites.

Not visible in the next 10 days
Identifier
56753, 2023-073B
Orbit
Decayed
Country
Flag of USUS
Related business
Manufacturer
Blue Canyon
Mission
Decayed Amateur Earth Obs Sci
Bus & Motor
CUBESAT 3U, Unknown motor
Mass
4 kg wet, ~4 kg dry
Launch date (UTC)
2023-05-26 (3 years ago)
Launch vehicle
ELECTRON
Launch site
Rocket Lab Launch Complex (RLLC)
Object type
Payload
Rocket body
Debris
Shape & HBR
Box, 0.3 m
Radar Cross Section
0.035 m², Medium (>0.1 m² and < 1m²)

Expand to show TLE details & history
Last TLE update: 6 months ago

TLE from 6 months ago
0 TROPICS-03
1 56753U 23073B   25345.03264214  .08166896 -15930-5  14961-2 0  9993
2 56753  32.7136 251.6872 0006401 263.5040  96.4936 16.31130267142523
Epoch: 2025-12-11T00:47Z
TLE epoch observation values (Epoch: 2025-12-11T00:47:00.280Z)
Latitude
-0.00004°
Longitude
159.94154°
Altitude
188.592 km
Speed
7.796 km/s
True Right ascension
16h 46m 44s
True Declination
0° 00' 00"
Sunlit
Object was in daylight at epoch
Visualization orbit readout
Latitude
Unknown
Longitude
Unknown
Altitude
Unknown
Speed
Unknown
Apparent Right ascension
Unknown
Apparent Declination
Unknown
Sunlit
N/A
Visualization observer readout
Local Sidereal Time
21:29:15
Azimuth
Unknown
Elevation
Unknown
Doppler factor
Unknown
Orbital elements
Apogee altitude
197.484 km
Perigee altitude
189.071 km
Semi-major axis
6,571.415 km
Eccentricity
0.00064
Inclination
32.7136°
RAAN
251.6872°
Arg. of periapsis
263.504°
True anomaly
96.56647°
Mean anomaly
96.4936°
Eccentric anomaly
96.53004°
Mean motion
4.07432 °/min
Orbital period
88.36 mins
BSTAR
0.0014961
Loading maneuver chart data...
Computing Atmospheric mass density...
Loading historical data...
Loading historical data...
Loading historical data...
Loading historical data...
Loading historical data...
Loading historical data...
Loading historical data...
Other satellites on launch #73 in the year 2023 (2023-05-26 UTC)

Documentation

Showing up to 5 results
|